TimePST,TemperatureF,Dew PointF,Humidity,Sea Level PressureIn,VisibilityMPH,Wind Direction,Wind SpeedMPH,Gust SpeedMPH,PrecipitationIn,Events,Conditions,WindDirDegrees,DateUTC
12:53 AM,45.0,36.0,71,30.29,10.0,Calm,Calm,-,N/A,,Clear,0,2013-12-23 08:53:00
1:53 AM,44.1,35.1,71,30.30,10.0,Calm,Calm,-,N/A,,Clear,0,2013-12-23 09:53:00
2:53 AM,43.0,35.1,74,30.32,10.0,Calm,Calm,-,N/A,,Clear,0,2013-12-23 10:53:00
3:53 AM,41.0,35.1,79,30.32,10.0,ESE,3.5,-,N/A,,Clear,120,2013-12-23 11:53:00
4:53 AM,42.1,36.0,79,30.32,10.0,Calm,Calm,-,N/A,,Clear,0,2013-12-23 12:53:00
5:53 AM,39.9,35.1,83,30.34,10.0,Calm,Calm,-,N/A,,Clear,0,2013-12-23 13:53:00
6:53 AM,39.0,35.1,86,30.35,10.0,Calm,Calm,-,N/A,,Clear,0,2013-12-23 14:53:00
7:53 AM,43.0,36.0,76,30.37,10.0,Calm,Calm,-,N/A,,Clear,0,2013-12-23 15:53:00
8:53 AM,46.9,37.0,68,30.38,10.0,Calm,Calm,-,N/A,,Clear,0,2013-12-23 16:53:00
9:53 AM,53.1,37.0,55,30.38,10.0,Calm,Calm,-,N/A,,Clear,0,2013-12-23 17:53:00
10:53 AM,55.9,37.0,49,30.38,10.0,Calm,Calm,-,N/A,,Partly Cloudy,0,2013-12-23 18:53:00
11:53 AM,59.0,39.0,48,30.37,10.0,Calm,Calm,-,N/A,,Partly Cloudy,0,2013-12-23 19:53:00
12:53 PM,62.1,37.9,41,30.35,10.0,NW,6.9,-,N/A,,Partly Cloudy,310,2013-12-23 20:53:00
1:53 PM,63.0,37.9,40,30.33,10.0,NW,8.1,-,N/A,,Partly Cloudy,320,2013-12-23 21:53:00
2:53 PM,62.1,37.0,39,30.32,10.0,NW,8.1,-,N/A,,Partly Cloudy,310,2013-12-23 22:53:00
3:53 PM,60.1,37.0,42,30.33,9.0,NW,6.9,-,N/A,,Partly Cloudy,310,2013-12-23 23:53:00
4:53 PM,57.9,37.0,46,30.32,8.0,Calm,Calm,-,N/A,,Scattered Clouds,0,2013-12-24 00:53:00
5:53 PM,55.0,37.0,51,30.33,10.0,Calm,Calm,-,N/A,,Partly Cloudy,0,2013-12-24 01:53:00
6:53 PM,51.1,39.9,66,30.34,8.0,WNW,4.6,-,N/A,,Clear,290,2013-12-24 02:53:00
7:53 PM,50.0,39.0,66,30.34,8.0,SE,3.5,-,N/A,,Clear,140,2013-12-24 03:53:00
8:53 PM,51.1,39.9,66,30.34,10.0,Calm,Calm,-,N/A,,Clear,0,2013-12-24 04:53:00
9:53 PM,50.0,39.9,68,30.34,10.0,SE,4.6,-,N/A,,Clear,140,2013-12-24 05:53:00
10:53 PM,46.9,39.0,74,30.34,10.0,SE,4.6,-,N/A,,Clear,130,2013-12-24 06:53:00
11:53 PM,45.0,39.0,80,30.34,10.0,Calm,Calm,-,N/A,,Partly Cloudy,0,2013-12-24 07:53:00